TimeMST,TemperatureF,Dew PointF,Humidity,Sea Level PressureIn,VisibilityMPH,Wind Direction,Wind SpeedMPH,Gust SpeedMPH,PrecipitationIn,Events,Conditions,WindDirDegrees,DateUTC
12:53 AM,6.1,-2.0,69,30.30,10.0,SSW,5.8,-,N/A,,Clear,200,2013-03-05 07:53:00
1:53 AM,3.0,-4.0,73,30.38,10.0,SSW,8.1,-,N/A,,Clear,200,2013-03-05 08:53:00
2:53 AM,1.9,-5.1,72,30.38,10.0,SSW,5.8,-,N/A,,Clear,200,2013-03-05 09:53:00
3:53 AM,-0.0,-6.0,76,30.42,10.0,SSW,5.8,-,N/A,,Clear,210,2013-03-05 10:53:00
4:53 AM,3.9,-4.0,70,30.42,10.0,SSW,6.9,-,N/A,,Clear,200,2013-03-05 11:53:00
6:53 AM,-0.0,-7.1,72,30.50,10.0,Calm,Calm,-,N/A,,Clear,0,2013-03-05 13:53:00
7:53 AM,10.9,-0.9,59,30.46,10.0,Calm,Calm,-,N/A,,Clear,0,2013-03-05 14:53:00
8:53 AM,16.0,1.9,54,30.43,10.0,Calm,Calm,-,N/A,,Clear,0,2013-03-05 15:53:00
9:53 AM,21.0,3.0,46,30.39,10.0,NNW,4.6,-,N/A,,Clear,330,2013-03-05 16:53:00
10:53 AM,26.1,3.0,37,30.35,10.0,North,4.6,-,N/A,,Clear,360,2013-03-05 17:53:00
11:53 AM,30.9,7.0,37,30.30,10.0,NNW,5.8,-,N/A,,Clear,340,2013-03-05 18:53:00
12:53 PM,36.0,3.0,25,30.27,10.0,North,4.6,-,N/A,,Clear,350,2013-03-05 19:53:00
1:53 PM,37.9,10.0,32,30.24,10.0,North,5.8,-,N/A,,Clear,360,2013-03-05 20:53:00
2:53 PM,37.9,12.0,35,30.24,10.0,NNW,6.9,-,N/A,,Clear,330,2013-03-05 21:53:00
3:53 PM,39.0,12.0,33,30.23,10.0,NNW,6.9,-,N/A,,Clear,340,2013-03-05 22:53:00
4:53 PM,37.0,12.9,37,30.21,10.0,NNW,5.8,-,N/A,,Clear,330,2013-03-05 23:53:00
5:53 PM,30.0,12.0,47,30.27,10.0,South,4.6,-,N/A,,Clear,190,2013-03-06 00:53:00
6:53 PM,25.0,10.9,55,30.30,10.0,South,8.1,-,N/A,,Clear,190,2013-03-06 01:53:00
7:53 PM,21.9,9.0,58,30.26,10.0,SSW,8.1,-,N/A,,Clear,210,2013-03-06 02:53:00
8:53 PM,21.0,8.1,57,30.24,10.0,South,6.9,-,N/A,,Clear,190,2013-03-06 03:53:00
9:53 PM,19.9,7.0,57,30.22,10.0,South,5.8,-,N/A,,Clear,170,2013-03-06 04:53:00
10:53 PM,19.9,7.0,57,30.20,10.0,SSE,6.9,-,N/A,,Clear,150,2013-03-06 05:53:00
11:53 PM,18.0,6.1,60,30.19,10.0,SSW,9.2,-,N/A,,Clear,200,2013-03-06 06:53:00